User: anonymous   Login
Location: Deep South Regional Star Gaze
(30.9929°N, 90.9586°W)
Time: 09:52:43
(UTC-05:00)
Language:

H-2A R/B - Orbit

View from above orbital plane
View from above orbital plane
View from above satellite
View from above satellite

Ground track
Ground track

The orbit data is extracted from the following two-line orbital elements,

1 26899U 01038B   18109.84080667  .00000775  00000-0  23893-3 0  9991
2 26899  28.1566 300.8058 7116697  31.1631 356.2555  2.48871802144134
Epoch (UTC): 19 April 2018 20:10:45
Eccentricity: 0.7116697
inclination: 28.1566°
perigee height: 254 km
apogee height: 32992 km
right ascension of ascending node: 300.8058°
argument of perigee: 31.1631°
revolutions per day: 2.48871802
mean anomaly at epoch: 356.2555°
orbit number at epoch: 14413

The dashed part of the orbit path shows where the satellite is in the earth's shadow,  

DLR